SCP
0 0 0 0 0 0 0 0 0 0 0 0 0 0 0 0 0 0 0 0 0 0 0 0 0 0 0 0 0 0 0 0 0 0 0 0 0 0 0 0 0 0 0
0 0 0 0 0 0 0 0 0 0 0 0 0 0 0 0 0 0 0 0 0 0 0 0 0 0 0 0 0 0 0 0 0 0 0 0 0 0 0 0 0 0 0
0 0 0 0 0 0 0 0 0 0 0 0 0 0 0 0 0 0 0 0 0 0 0 0 0 0 0 0 0 0 0 0 0 0 0 0 0 0 0 0 0 0 0
0 0 0 0 0 0 0 0 0 0 0 0 0 0 0 0 0 0 0 0 0 0 0 0 0 0 0 0 0 0 0 0 0 0 0 0 0 0 0 0 0 0 0
0 0 0 0 0 0 0 0 0 0 0 0 0 0 0 0 0 0 0 0 0 0 0 0 0 0 0 0 0 0 0 0 0 0 0 0 0 0 0 0 0 0 0
0 0 0 0 0 0 0 0 0 0 0 0 0 0 0 0 0 0 0 0 0 0 0 0 0 0 0 0 0 0 0 0 0 0 0 0 0 0 0 0 0 0 0
0 0 0 0 0 0 0 0 0 0 0 0 0 0 0 0 0 0 0 0 0 0 0 0 0 0 0 0 0 0 0 0 0 0 0 0 0 0 0 0 0 0 0
0 0 0 0 0 0 0 0 0 0 0 0 0 0 0 0 0 0 0 0 0 0 0 0 0 0 0 0 0 0 0 0 0 0 0 0 0 0 0 0 0 0 0
0 0 0 0 0 0 0 0 0 0 0 0 0 0 0 0 0 0 0 0 0 0 0 0 0 0 0 0 0 0 0 0 0 0 0 0 0 0 0 0 0 0 0
0 0 0 0 0 0 0 0 0 0 0 0 0 0 0 0 0 0 0 0 0 0 0 0 0 0 0 0 0 0 0 0 0 0 0 0 0 0 0 0 0 0 0
0 0 0 0 0 0 0 0 0 0 0 0 0 0 0 0 0 0 0 0 0 0 0 0 0 0 0 0 0 0 0 0 0 0 0 0 0 0 0 0 0 0 0
0 0 0 0 0 0 0 0 0 0 0 0 0 0 0 0 0 0 0 0 0 0 0 0 0 0 0 0 0 0 0 0 0 0 0 0 0 0 0 0 0 0 0
0 0 0 0 0 0 0 0 0 0 0 0 0 0 0 0 0 0 0 0 0 0 0 0 0 0 0 0 0 0 0 0 0 0 0 0 0 0 0 0 0 0 0
0 0 0 0 0 0 0 0 0 0 0 0 0 0 0 0 0 0 0 0 0 0 0 0 0 0 0 0 0 0 0 0 0 0 0 0 0 0 0 0 0 0 0
0 0 0 0 0 0 0 0 0 0 0 0 0 0 0 0 0 0 0 0 0 0 0 0 0 0 0 0 0 0 0 0 0 0 0 0 0 0 0 0 0 0 0
0 0 0 0 0 0 0 0 0 0 0 0 0 0 0 0 0 0 0 0 0 0 0 0 0 0 0 0 0 0 0 0 0 0 0 0 0 0 0 0 0 0 0
0 0 0 0 0 0 0 0 0 0 0 0 0 0 0 0 0 0 0 0 0 0 0 0 0 0 0 0 0 0 0 0 0 0 0 0 0 0 0 0 0 0 0
0 0 0 0 0 0 0 0 0 0 0 0 0 0 0 0 0 0 0 0 0 0 0 0 0 0 0 0 0 0 0 0 0 0 0 0 0 0 0 0 0 0 0
0 0 0 0 0 0 0 0 0 0 0 0 0 0 0 0 0 0 0 0 0 0 0 0 0 0 0 0 0 0 0 0 0 0 0 0 0 0 0 0 0 0 0
0 0 0 0 0 0 0 0 0 0 0 0 0 0 0 0 0 0 0 0 0 0 0 0 0 0 0 0 0 0 0 0 0 0 0 0 0 0 0 0 0 0 0
0 0 0 0 0 0 0 0 0 0 0 0 0 0 0 0 0 0 0 0 0 0 0 0 0 0 0 0 0 0 0 0 0 0 0 0 0 0 0 0 0 0 0
0 0 0 0 0 0 0 0 0 0 0 0 0 0 0 0 0 0 0 0 0 0 0 0 0 0 0 0 0 0 0 0 0 0 0 0 0 0 0 0 0 0 0
0 0 0 0 0 0 0 0 0 0 0 0 0 0 0 0 0 0 0 0 0 0 0 0 0 0 0 0 0 0 0 0 0 0 0 0 0 0 0 0 0 0 0
0 0 0 0 0 0 0 0 0 0 0 0 0 0 0 0 0 0 0 0 0 0 0 0 0 0 0 0 0 0 0 0 0 0 0 0 0 0 0 0 0 0 0
0 0 0 0 0 0 0 0 0 0 0 0 0 0 0 0 0 0 0 0 0 0 0 0 0 0 0 0 0 0 0 0 0 0 0 0 0 0 0 -0 0 0 0
0 0 0 0 0 0 0 0 0 0 0 0 0 0 0 0 0 0 0 0 0 0 0 0 0 0 0 0 0 0 0 0 0 0 0 0 0 0 0 -0 -0 0 0
Wind_Speed
0 1 2 5 8 10 11 11 12 12 12 13 13 13 13 13 14 14 14 14 14 14 14 14 15 15 15 15 15 15 15 15 15 15 14 14 14 15 15 14 13 10 15
3 1 3 6 9 10 11 11 12 12 12 12 13 13 13 14 14 14 14 14 14 14 14 14 14 14 15 15 15 14 14 14 14 14 13 11 12 14 14 14 13 9 14
4 2 3 6 9 10 11 11 11 11 12 12 12 13 13 13 13 13 13 13 13 13 13 13 14 14 14 14 13 13 13 13 13 12 11 6 8 13 13 13 13 14 14
4 3 4 7 10 11 11 11 11 11 11 12 12 12 12 13 13 13 13 13 13 13 13 13 13 13 13 13 12 12 12 12 11 10 6 5 5 11 13 13 13 13 13
5 4 5 9 10 10 11 11 11 11 11 11 11 11 11 12 12 12 12 12 12 12 12 12 12 12 12 12 11 11 11 11 11 8 5 4 4 10 12 12 12 12 12
5 4 5 10 10 10 10 10 11 11 10 11 11 10 10 11 12 12 12 12 12 12 12 12 12 11 11 11 11 11 11 11 8 5 5 4 4 10 11 11 11 11 12
5 5 5 9 10 10 10 10 10 10 10 11 10 10 10 10 11 11 11 11 11 11 11 11 11 11 10 10 11 11 11 10 6 4 4 4 5 10 10 10 10 11 11
6 5 5 9 9 9 10 10 10 10 10 10 10 10 10 10 10 10 10 10 10 10 11 11 10 10 10 10 10 11 10 8 6 5 3 3 6 8 9 9 9 10 10
7 6 5 5 6 8 9 9 9 10 10 10 10 10 9 9 9 9 9 10 10 10 10 10 10 10 10 10 10 10 10 9 5 3 3 2 6 7 8 7 8 8 9
6 6 5 5 5 5 5 8 9 9 9 9 9 10 10 9 8 9 8 9 9 9 9 9 9 9 9 9 9 10 10 7 4 4 2 3 6 6 7 7 7 7 7
5 4 4 4 4 4 4 6 7 7 8 8 7 9 8 4 4 5 6 8 8 8 8 8 8 9 8 8 9 9 7 3 4 3 2 5 6 6 6 6 6 6 6
3 3 3 3 4 4 4 3 3 4 4 4 3 4 3 3 3 5 7 8 8 8 8 8 8 8 6 4 5 7 3 4 3 3 2 5 5 6 5 6 6 6 5
2 3 3 3 3 3 3 2 2 2 2 3 3 3 3 3 3 3 3 4 4 6 4 5 5 3 3 3 3 3 3 3 2 2 3 5 4 4 5 5 5 5 4
3 3 3 3 3 3 3 2 2 2 2 2 2 3 3 2 2 2 2 2 2 2 2 2 2 3 3 3 3 3 3 2 2 2 3 5 4 4 4 4 4 5 4
3 2 2 2 3 3 3 2 2 2 2 2 2 2 3 2 2 2 2 1 2 1 2 2 2 2 3 3 3 3 3 3 3 3 2 5 5 4 3 3 3 4 4
3 2 2 2 3 3 3 2 2 1 1 2 2 2 2 2 2 2 2 1 1 1 1 1 1 1 1 2 3 3 3 2 3 3 2 3 5 4 3 3 2 3 3
3 2 2 3 3 3 3 2 2 1 2 2 1 2 2 2 2 2 2 1 1 1 1 1 2 2 2 2 2 2 2 2 2 2 2 2 3 5 4 3 3 2 2
3 3 2 2 3 2 2 2 2 1 2 1 1 1 2 2 2 2 1 1 0 1 1 1 1 2 1 1 1 1 1 1 2 2 2 2 2 2 4 4 3 3 2
3 3 3 2 2 2 2 2 2 2 2 2 2 2 2 2 2 2 1 1 1 1 1 1 1 1 1 1 1 1 1 1 1 1 2 2 2 2 2 3 4 3 3
2 3 3 2 2 2 2 2 2 2 2 1 2 2 2 2 1 2 1 1 1 1 1 1 1 1 1 1 1 2 2 1 1 1 0 1 1 2 2 2 2 2 3
2 2 2 2 1 1 1 1 1 1 0 1 1 2 2 2 2 1 1 1 1 2 1 1 1 1 1 1 2 2 2 2 1 1 0 1 1 1 1 1 1 1 2
1 1 2 2 1 1 1 1 1 1 0 0 1 1 2 2 2 1 1 1 1 1 1 1 1 1 0 0 2 1 1 2 2 2 1 0 0 1 1 1 0 1 1
1 1 1 1 1 1 1 1 1 2 1 1 1 1 1 1 1 1 1 0 1 1 1 1 2 2 1 1 0 2 2 3 2 2 1 1 1 1 1 1 1 1 1
1 1 1 1 1 1 1 2 2 1 1 1 1 1 1 1 1 1 1 0 0 1 1 1 1 1 2 1 1 1 1 1 2 1 2 1 1 1 1 1 1 1 1
0 1 0 1 1 1 1 1 2 1 0 1 1 1 1 1 1 1 1 1 1 1 1 1 1 1 1 2 1 1 1 1 1 2 3 2 2 2 2 2 1 1 2
1 1 1 1 0 1 1 1 1 1 0 0 1 1 1 1 1 1 1 1 1 1 1 2 2 2 2 2 2 1 1 2 2 2 2 3 3 3 3 2 2 2 2
Wind_Direction
215 265 135 102 103 98 94 91 89 85 83 83 82 82 82 82 82 82 81 78 76 75 75 74 74 75 74 75 76 75 73 73 74 73 73 75 78 80 79 77 74 72 77
159 182 118 107 104 100 96 93 89 85 84 84 83 82 82 82 82 83 82 79 77 75 74 74 74 74 74 74 75 75 75 75 74 71 68 67 75 80 80 80 79 80 80
121 123 119 105 106 102 98 94 91 88 87 85 84 83 83 82 81 81 80 78 76 74 73 73 73 72 71 73 73 73 73 76 74 71 69 61 74 82 82 82 82 83 83
106 97 108 105 105 103 102 98 94 92 90 86 83 82 82 82 81 81 79 77 76 75 74 73 72 72 69 68 69 69 71 73 72 69 62 58 69 85 85 86 84 86 85
90 81 96 101 102 102 102 100 96 93 91 88 85 83 82 81 80 79 79 77 76 75 75 74 73 70 66 64 64 68 71 69 67 62 55 57 64 86 87 87 86 87 85
82 75 94 97 99 99 99 99 98 95 93 91 88 86 84 82 81 79 77 77 76 76 76 75 72 68 62 62 63 69 71 66 62 56 56 57 67 88 89 88 88 87 86
82 73 88 94 96 96 100 99 99 96 93 91 89 87 86 84 83 82 79 78 76 75 76 75 72 69 64 62 62 66 69 63 62 56 59 61 76 87 88 88 91 90 90
84 72 76 88 90 91 93 96 96 95 92 88 88 87 86 85 83 83 81 80 79 77 76 73 69 66 63 62 62 63 61 62 66 58 58 68 86 89 90 91 91 93 93
74 69 63 66 74 81 85 88 89 91 92 90 86 84 81 82 83 84 80 81 79 76 73 72 68 63 61 60 59 61 59 61 53 47 57 67 88 92 90 93 93 95 96
68 65 61 61 67 73 77 82 82 85 88 87 85 81 77 77 78 77 74 77 78 75 72 70 67 62 59 57 58 61 58 54 44 39 39 68 81 90 91 89 92 96 99
63 56 60 62 60 67 80 81 81 83 84 83 81 80 76 70 71 70 67 72 74 71 67 64 62 59 55 55 57 57 52 44 38 29 35 67 79 86 91 92 92 95 101
81 60 59 66 65 63 74 73 71 74 77 78 80 83 80 72 63 66 63 64 65 62 58 54 50 51 46 42 49 50 45 43 36 21 35 60 76 83 87 92 92 93 100
115 73 55 69 71 72 75 78 72 70 67 71 73 75 83 76 66 58 56 53 53 54 48 42 41 38 42 41 41 42 44 46 30 15 28 43 63 83 88 92 95 91 101
100 73 55 58 74 72 73 75 77 78 77 73 72 81 94 91 79 71 62 51 54 49 46 38 36 37 46 46 51 52 50 49 33 17 28 39 45 66 87 95 101 94 92
101 87 64 61 72 77 79 72 70 68 80 87 84 84 96 106 106 96 86 70 64 60 60 47 42 45 50 49 52 61 55 51 42 28 17 34 37 47 74 98 99 104 92
117 110 82 76 73 76 79 81 80 73 72 77 72 79 98 109 117 119 106 92 72 72 83 74 58 58 51 54 53 52 60 54 51 38 22 22 28 33 51 81 93 112 104
133 116 100 96 77 79 79 80 80 70 80 80 70 64 84 100 114 121 124 105 84 81 89 80 67 62 56 54 52 42 56 55 50 42 25 19 12 21 28 56 67 82 103
118 112 100 100 88 81 78 82 84 69 70 69 69 62 68 84 104 116 118 126 130 94 89 107 99 88 68 66 55 25 36 54 50 45 37 34 17 11 13 28 44 49 56
126 119 109 90 96 91 81 78 73 72 66 58 54 51 43 54 90 114 117 112 127 100 89 113 104 125 117 102 87 45 23 32 28 39 44 34 22 23 14 15 20 28 29
114 112 112 98 89 95 92 74 62 54 49 54 60 48 39 35 58 101 112 113 104 101 81 94 116 95 126 131 80 35 3 351 5 31 37 29 14 24 22 7 0 360 10
91 101 108 99 79 88 111 125 109 75 24 35 55 50 48 33 29 76 83 119 117 114 120 103 115 119 76 95 84 21 350 349 352 332 8 48 13 4 21 6 354 4 347
110 124 130 131 117 108 128 149 160 149 156 64 28 23 36 38 21 33 87 129 107 104 102 111 111 137 152 132 131 121 333 328 337 323 319 271 321 344 330 327 350 12 1
130 175 164 165 141 120 95 94 81 61 37 24 11 357 7 29 48 22 33 133 126 139 182 203 184 160 193 251 153 151 173 221 299 306 301 305 296 276 275 296 335 328 334
212 193 144 139 118 106 105 110 125 138 194 249 262 297 323 358 37 36 20 282 158 146 180 219 195 184 169 211 278 283 233 186 189 268 295 298 290 269 261 278 282 287 295
76 87 132 131 112 97 93 122 140 163 223 305 327 312 287 312 3 25 21 321 230 209 205 221 218 196 189 202 215 238 261 275 222 203 253 277 299 281 266 250 250 264 264
61 56 58 87 88 99 111 107 128 175 222 277 307 288 281 279 311 353 340 322 271 242 234 233 226 218 219 220 229 218 199 197 210 206 227 248 267 277 275 258 243 244 246